Location: Apeadero de Los Molinos-Guadarrama
(40.7091°N, 4.0689°W)
Time: 14:42:33
(UTC+00:00)

ISS - Pass Details

Date: 01 October 2021
Orbit: 417 x 423 km, 51.6° (Epoch: 28 October)

Event Time Altitude Azimuth Distance (km) Brightness Sun altitude
Rises 19:51:11 0° 309° (NW) 2,366 1.2 -22.1°
Reaches altitude 10° 19:53:19 10° 315° (NW) 1,501 -0.1 -22.5°
Enters shadow 19:55:36 36° 340° (NNW) 687 -2.5 -22.9°
